Location: ???????
(41.3033°N, 22.6400°E)
Time: 01:45:48
(UTC+00:00)

Daily predictions for brighter satellites

Satellite Brightness Start Highest point End
(mag) Time Altitude Azimuth Time Altitude Azimuth Time Altitude Azimuth
Lacrosse 4 Rocket 4.5 02:28:05 13° ENE 02:28:05 13° ENE 02:28:46 10° ENE
Atlas Centaur 2 3.8 02:44:14 34° SSE 02:44:14 34° SSE 02:50:29 10° ESE
ATLAS CENTAUR R/B 4.2 02:55:32 12° NE 02:55:32 12° NE 02:55:48 10° NE
USA 215 4.3 02:51:18 10° NE 02:55:54 31° N 02:55:54 31° N
BREEZE-M DEB (TANK) 4.4 03:01:49 26° E 03:01:49 26° E 03:04:57 10° ENE
Lacrosse 5 rocket 3.8 03:04:31 15° SE 03:04:31 15° SE 03:05:11 10° SE
ADEOS 4.0 02:59:51 10° NNE 03:05:01 58° ESE 03:06:52 37° SSE
Cosmos 2034 Rocket 4.3 03:03:55 10° S 03:10:13 67° E 03:16:31 10° NNE
USA 305 4.4 03:14:41 33° NE 03:14:41 33° NE 03:17:05 10° NE
Cosmos 1943 Rocket 4.3 03:10:15 10° N 03:14:39 22° NE 03:19:01 10° ESE
NOSS 3-2 (A) 3.7 03:13:00 37° S 03:15:02 58° ESE 03:21:09 10° NE
USA 308 4.2 03:17:07 37° NE 03:17:07 37° NE 03:19:46 10° NE
Cosmos 1570 Rocket 4.5 03:17:07 51° NNE 03:17:07 51° NNE 03:21:02 10° NNE
Cosmos 1400 Rocket 4.0 03:17:33 42° ENE 03:17:33 42° ENE 03:20:54 10° NNE
SL-4 R/B 3.8 03:19:55 24° NE 03:19:55 24° NE 03:21:40 10° NE
Cosmos 1814 Rocket 4.1 03:23:33 61° N 03:23:33 61° N 03:27:47 10° NNE
USA 306 3.9 03:26:28 41° NE 03:26:28 41° NE 03:29:20 10° NE
CZ-4B R/B 3.7 03:23:06 10° SSE 03:24:19 20° SE 03:24:19 20° SE
SJ-12 4.3 03:23:32 10° NNE 03:27:40 63° ESE 03:27:55 62° ESE
NOSS 3-2 (C) 4.4 03:23:35 10° S 03:28:44 42° ESE 03:34:30 10° NE
USA 267 3.6 03:22:51 10° SSE 03:29:01 44° SW 03:29:01 44° SW
COSMO-SKYMED 1 2.9 03:28:58 10° SSE 03:33:14 63° ENE 03:35:20 29° N
SL-16 R/B 2.6 03:28:26 10° S 03:34:00 63° ESE 03:39:36 10° NNE
Cosmos 2278 Rocket 2.9 03:36:40 37° SSW 03:36:40 37° SSW 03:40:32 10° S
CENTAUR R/B 3.1 03:30:38 10° SSW 03:36:08 53° ESE 03:42:37 10° NE
CZ-4B R/B 3.6 03:33:17 10° NNE 03:36:52 47° E 03:40:33 10° S
Cosmos 2219 Rocket 4.4 03:41:53 11° NNW 03:41:53 11° NNW 03:42:09 10° N
Cosmos 2237 Rocket 2.8 03:43:06 38° NW 03:43:06 38° NW 03:47:33 10° N
Cosmos 2208 Rocket 4.0 03:42:48 54° WSW 03:43:37 60° WNW 03:48:59 10° NNE
CZ-2C R/B 2.4 03:44:59 32° S 03:45:06 33° S 03:48:51 10° SE
ERBS 4.3 03:45:15 18° S 03:46:46 26° SE 03:49:35 10° ENE
ERS-2 2.7 03:45:02 10° SSE 03:48:37 57° ENE 03:50:34 24° N
H-2A R/B 3.2 03:51:10 10° NNE 03:54:52 60° E 03:58:35 10° S
SKYMED 3 4.4 03:52:56 10° S 03:57:15 70° WSW 03:59:38 26° NNW
FALCON 9 DEB 3.0 03:57:40 71° SE 03:57:40 71° SE 04:00:47 10° NE
Meteor PRIRODA 3.5 03:56:18 10° NNE 03:59:57 89° ESE 04:03:34 10° SSW
BREEZE-M DEB (TANK) 3.1 03:55:50 27° WNW 04:00:11 83° SW 04:03:28 10° SE
Cosmos 1626 Rocket 3.7 04:00:28 41° NW 04:01:35 51° W 04:05:54 10° S
Cosmos 1703 3.3 04:03:37 52° W 04:03:43 52° W 04:07:32 10° S
Lacrosse 4 Rocket 2.1 04:04:26 35° NW 04:04:26 35° NW 04:08:00 10° NNE
Meteor 1-11 4.4 03:58:40 10° N 04:04:16 74° E 04:09:51 10° SSE
FALCON 9 DEB 2.7 04:06:10 80° NW 04:06:12 80° NW 04:09:19 10° NE
Cosmos 2195 Rocket 4.4 04:02:18 10° N 04:08:35 87° W 04:14:45 10° S
Cosmos 1300 2.9 04:05:20 10° S 04:09:06 70° E 04:12:54 10° NNE
USA 238 DEB 3.5 04:04:02 10° SW 04:10:33 72° NW 04:17:25 10° NNE
USA 238 3.5 04:04:09 10° SW 04:10:40 73° NW 04:17:32 10° NNE
SAR-Lupe-4 3.5 04:08:51 10° SSE 04:12:26 87° ENE 04:15:59 10° NNW
Cosmos 1315 Rocket 3.1 04:09:00 10° S 04:12:53 67° E 04:16:46 10° NNE
Cosmos 2297 3.7 04:08:14 10° NNW 04:13:58 87° WSW 04:19:42 10° SSE
deb Chang Zheng 4 3.6 04:11:19 10° N 04:15:25 50° WNW 04:19:30 10° SSW
MOS 1 Rocket 3.3 04:11:54 10° S 04:16:45 62° W 04:21:20 10° NNW
Cosmos 1428 Rocket 4.5 04:11:39 10° N 04:17:57 88° W 04:24:09 10° S
Cosmos 836 Rocket 4.5 04:13:04 10° SSW 04:18:20 90° SE 04:23:37 10° NNE
[s.n.47389] 3.5 04:17:47 24° SSW 04:18:59 43° SE 04:21:29 10° ENE
[s.n.47399] 3.5 04:17:49 24° SSW 04:19:02 43° SE 04:21:31 10° ENE
[s.n.47393] 3.5 04:17:51 24° SSW 04:19:04 43° SE 04:21:33 10° ENE
[s.n.47353] 3.5 04:17:55 23° SSW 04:19:08 43° SE 04:21:37 10° ENE
[s.n.47355] 3.5 04:17:58 23° SSW 04:19:11 44° SE 04:21:41 10° ENE
[s.n.47365] 3.4 04:18:00 23° SSW 04:19:14 44° SE 04:21:44 10° ENE
[s.n.47383] 3.4 04:18:06 23° SSW 04:19:19 44° SE 04:21:48 10° ENE
[s.n.47400] 3.4 04:18:03 23° SSW 04:19:20 44° SE 04:21:52 10° ENE
[s.n.47378] 3.4 04:18:11 23° SSW 04:19:25 44° SE 04:21:55 10° ENE
[s.n.47395] 3.4 04:18:14 23° SSW 04:19:28 44° SE 04:21:57 10° ENE
[s.n.47379] 3.4 04:18:20 23° SSW 04:19:34 44° SE 04:22:03 10° ENE
[s.n.47370] 3.4 04:18:20 23° SSW 04:19:34 44° SE 04:22:03 10° ENE
[s.n.47351] 3.4 04:18:20 23° SSW 04:19:37 45° SE 04:22:09 10° ENE
[s.n.47394] 3.4 04:18:26 23° SSW 04:19:40 44° SE 04:22:10 10° ENE
[s.n.47354] 3.4 04:18:30 23° SSW 04:19:45 44° SE 04:22:14 10° ENE
[s.n.47360] 3.4 04:18:32 23° SSW 04:19:46 44° SE 04:22:16 10° ENE
[s.n.47369] 3.4 04:18:36 23° SSW 04:19:51 44° SE 04:22:21 10° ENE
[s.n.47406] 3.4 04:18:38 23° SSW 04:19:53 44° SE 04:22:23 10° ENE
[s.n.47384] 3.4 04:18:42 23° SSW 04:19:56 45° SE 04:22:26 10° ENE
[s.n.47356] 3.4 04:18:45 23° SSW 04:19:59 45° SE 04:22:29 10° ENE
[s.n.47407] 3.4 04:18:48 23° SSW 04:20:03 45° SE 04:22:33 10° ENE
[s.n.47385] 3.4 04:18:46 23° SSW 04:20:05 45° SE 04:22:37 10° ENE
[s.n.47358] 3.4 04:18:55 23° SSW 04:20:10 45° SE 04:22:40 10° ENE
[s.n.47398] 3.4 04:18:57 23° SSW 04:20:12 45° SE 04:22:42 10° ENE
[s.n.47361] 3.4 04:19:01 23° SSW 04:20:15 45° SE 04:22:46 10° ENE
[s.n.47392] 3.4 04:19:02 23° SSW 04:20:18 45° SE 04:22:48 10° ENE
[s.n.47382] 3.4 04:19:06 23° SSW 04:20:22 45° SE 04:22:52 10° ENE
[s.n.47359] 3.4 04:19:06 23° SSW 04:20:24 46° SE 04:22:56 10° ENE
[s.n.47401] 3.4 04:19:14 23° SSW 04:20:29 45° SE 04:22:59 10° ENE
[s.n.47380] 3.4 04:19:11 23° SSW 04:20:30 46° SE 04:23:03 10° ENE
[s.n.47386] 3.4 04:19:20 23° SSW 04:20:35 45° SE 04:23:06 10° ENE
[s.n.47408] 3.4 04:19:18 23° SSW 04:20:38 46° SE 04:23:11 10° ENE
[s.n.47396] 3.4 04:19:25 23° SSW 04:20:41 46° SE 04:23:12 10° ENE
[s.n.47391] 3.4 04:19:26 23° SSW 04:20:43 46° SE 04:23:14 10° ENE
[s.n.47402] 3.3 04:19:30 23° SSW 04:20:47 46° SE 04:23:17 10° ENE
[s.n.47404] 3.3 04:19:33 23° SSW 04:20:51 46° SE 04:23:21 10° ENE
[s.n.47403] 3.3 04:19:36 23° SSW 04:20:54 46° SE 04:23:24 10° ENE
[s.n.47381] 3.3 04:19:39 23° SSW 04:20:57 46° SE 04:23:28 10° ENE
[s.n.47372] 3.3 04:19:43 23° SSW 04:21:01 46° SE 04:23:31 10° ENE
[s.n.47405] 3.3 04:19:45 23° SSW 04:21:03 46° SE 04:23:34 10° ENE
[s.n.47368] 3.3 04:19:51 23° SSW 04:21:08 46° SE 04:23:39 10° ENE
[s.n.47350] 3.3 04:19:53 23° SSW 04:21:11 46° SE 04:23:41 10° ENE
[s.n.47349] 3.3 04:19:50 22° SSW 04:21:12 47° SE 04:23:46 10° ENE
[s.n.47367] 3.3 04:19:56 23° SSW 04:21:15 47° SE 04:23:47 10° ENE
[s.n.47373] 3.3 04:19:57 22° SSW 04:21:18 47° SE 04:23:52 10° ENE
SKYMED 2 4.1 04:17:19 10° SSW 04:21:21 37° W 04:23:56 19° NW
[s.n.47377] 3.3 04:20:01 22° SSW 04:21:22 47° SE 04:23:56 10° ENE
[s.n.47371] 3.3 04:20:02 22° SSW 04:21:24 47° SE 04:23:57 10° ENE
[s.n.47362] 3.3 04:20:05 22° SSW 04:21:27 47° SE 04:24:00 10° ENE
[s.n.47363] 3.3 04:20:09 22° SSW 04:21:31 47° SE 04:24:04 10° ENE
[s.n.47374] 3.3 04:20:15 22° SSW 04:21:35 47° SE 04:24:07 10° ENE
[s.n.47357] 3.3 04:20:19 22° SSW 04:21:38 47° SE 04:24:10 10° ENE
[s.n.47390] 3.3 04:20:23 23° SSW 04:21:42 47° SE 04:24:13 10° ENE
[s.n.47387] 3.3 04:20:25 22° SSW 04:21:44 47° SE 04:24:16 10° ENE
[s.n.47375] 3.3 04:20:26 23° SSW 04:21:45 47° SE 04:24:16 10° ENE
[s.n.47376] 3.3 04:20:24 22° SSW 04:21:47 48° SE 04:24:21 10° ENE
[s.n.47366] 3.3 04:20:34 22° SSW 04:21:55 48° SE 04:24:27 10° ENE
[s.n.47352] 3.3 04:20:36 22° SSW 04:21:58 48° SE 04:24:31 10° ENE
[s.n.47364] 3.3 04:20:40 22° SSW 04:22:02 48° SE 04:24:34 10° ENE
[s.n.47388] 3.3 04:20:44 22° SSW 04:22:05 48° SE 04:24:37 10° ENE
[s.n.47397] 3.3 04:20:50 22° SSW 04:22:10 48° SE 04:24:41 10° ENE
Cosmos 1346 Rocket 2.7 04:20:07 10° NNW 04:24:06 79° W 04:28:05 10° S
Cosmos 1758 Rocket 3.5 04:22:55 10° NNW 04:27:23 70° W 04:31:47 10° S
SAR-Lupe-1 4.1 04:25:17 10° S 04:28:48 57° WSW 04:32:21 10° NNW
ATLAS CENTAUR R/B 2.7 04:31:44 18° NW 04:31:44 18° NW 04:33:57 10° N
Atlas Centaur 2 4.2 04:26:50 13° WSW 04:32:24 29° SSW 04:39:19 10° SE
Cosmos 1689 Rocket 2.2 04:30:48 10° S 04:33:35 46° W 04:35:31 17° NNW
Cosmos 1726 Rocket 3.5 04:34:55 10° S 04:39:14 89° WNW 04:43:34 10° N
Cosmos 2150 Rocket 4.4 04:34:21 10° NNW 04:39:26 44° WSW 04:44:34 10° S
Lacrosse 5 rocket 3.4 04:40:11 10° WSW 04:40:11 10° WSW 04:40:30 10° SW
Cosmos 1092 Rocket 4.3 04:34:19 10° NNW 04:40:07 44° W 04:45:56 10° SSW
Cosmos 2084 Rocket 4.1 04:37:18 18° WNW 04:40:09 40° WSW 04:44:24 10° S
GEOS 3 Rocket 3.8 04:35:07 10° SE 04:40:28 80° NE 04:45:54 10° NNW
Cosmos 2058 Rocket 3.8 04:36:47 10° S 04:41:05 57° E 04:45:26 10° NNE
Cosmos 1340 4.2 04:42:00 17° W 04:42:00 17° W 04:44:00 10° SW
Spot 2 4.0 04:38:45 10° NNE 04:42:49 80° ESE 04:46:58 10° SSW
Cosmos 2279 Rocket 4.0 04:37:22 10° S 04:43:37 82° W 04:49:55 10° N
Cosmos 1892 3.7 04:41:19 10° N 04:45:05 50° E 04:48:50 10° SSE
BREEZE-M DEB (TANK) 4.0 04:44:16 12° NNW 04:45:22 16° N 04:47:14 10° NE
YAOGAN 6 2.9 04:42:17 10° N 04:45:50 44° WNW 04:49:21 10° SSW
USA 307 4.2 04:44:42 16° WNW 04:46:54 24° NNW 04:50:24 10° NNE
Meteor 2-19 Rocket 4.4 04:42:19 10° NNW 04:48:21 62° W 04:54:18 10° S
FALCON 9 DEB 3.8 04:46:56 19° W 04:48:35 31° NNW 04:51:25 10° NE
CZ-4B DEB 4.2 04:43:00 10° NNE 04:48:36 82° WNW 04:54:08 10° SSW
Cosmos 2292 Rocket 3.2 04:45:39 10° N 04:48:43 69° E 04:52:23 10° SSE
In-Cosmos 22 Rocket 4.4 04:43:17 10° N 04:48:44 74° E 04:54:02 10° SSE
USA 305 4.3 04:50:50 14° WNW 04:53:17 22° NNW 04:56:40 10° NNE
BREEZE-M (TANK) 2.0 04:52:16 18° W 04:53:23 35° SW 04:55:27 10° SE
PSLV R/B 4.1 04:51:41 10° N 04:55:33 46° WNW 04:59:27 10° SW
Cosmos 2098 Rocket 3.6 04:50:45 10° NNW 04:55:54 44° W 04:59:59 10° SSW
USA 308 4.3 04:53:17 13° WNW 04:55:59 23° NNW 04:59:25 10° NNE
FALCON 9 DEB 3.8 04:55:02 14° W 04:57:17 30° NNW 05:00:07 10° NE
SL-4 R/B 3.5 04:55:30 12° WNW 04:58:03 21° N 05:01:14 10° NE
Cosmos 1943 Rocket 2.3 04:53:14 10° NNW 04:58:48 59° WSW 05:04:20 10° S
Okean O Rocket 2.0 04:54:38 10° NNE 04:58:59 67° ESE 05:03:17 10° S
CZ-2C R/B 2.6 04:53:54 10° SSE 04:59:08 86° WSW 05:04:33 10° NNW
Cosmos 1408 3.5 04:55:58 10° N 04:59:29 51° E 05:03:01 10° SSE
Cosmos 1825 Rocket 4.0 04:55:44 10° NNW 04:59:57 41° W 05:04:08 10° SSW
SMAP 3.0 04:55:25 10° NNE 05:00:06 84° WNW 05:04:45 10° SSW
USA 306 4.4 05:02:36 11° WNW 05:05:40 20° NNW 05:08:53 10° NNE
H-2A R/B 2.6 05:01:40 10° N 05:06:11 71° WNW 05:10:37 10° SSW
NOSS 3-2 (A) 4.3 05:01:20 10° W 05:06:19 28° NW 05:11:54 10° NNE
Envisat 3.5 05:02:19 10° N 05:06:58 37° WNW 05:11:36 10° SW
Cosmos 773 Rocket 4.2 05:01:48 10° SSW 05:07:02 81° ESE 05:12:16 10° NNE
Cosmos 1125 Rocket 4.3 05:04:07 10° NW 05:08:49 33° W 05:13:30 10° SSW
Cosmos 2369 Rocket 2.2 05:03:39 10° NNW 05:09:16 83° WSW 05:14:51 10° SSE
Cosmos 1939 Rocket 3.6 05:05:37 10° NNE 05:09:27 56° E 05:13:13 10° S
COSMO-SKYMED 1 4.5 05:08:24 10° WSW 05:09:48 11° W 05:11:12 10° WNW
Meteor 2-10 Rocket 3.8 05:05:31 10° S 05:11:21 83° W 05:17:09 10° N
Cosmos 2228 4.1 05:13:02 10° SW 05:16:26 23° WNW 05:19:52 10° NNW
DMSP B5D2-2 4.1 05:12:30 10° SSE 05:17:46 83° WSW 05:23:04 10° NNW
SL-16 R/B 3.4 05:14:21 10° W 05:18:35 21° NW 05:22:50 10° N
NOSS 3-2 (C) 4.0 05:14:28 10° WSW 05:19:41 35° NW 05:25:36 10° NNE
Cosmos 2266 Rocket 4.0 05:13:53 10° N 05:19:57 89° E 05:26:00 10° S
Radarsat Rocket 4.4 05:13:22 10° NNE 05:20:51 74° WNW 05:27:24 10° SSW
Cosmos 1943 3.2 05:16:56 10° SSW 05:22:37 73° WNW 05:28:21 10° NNE
CZ-4B R/B 3.3 05:17:17 10° N 05:22:55 73° WNW 05:28:25 10° SSW
